7 * 24
多渠道服务支持
STARLINK-34582是美国SpaceX公司星链(Starlink)星座的卫星成员,于2025年7月8日发射入轨。星链是目前全球规模最大的低轨卫星互联网星座,旨在为全球传统网络覆盖薄弱区域提供高速互联网接入服务。该卫星运行在近地轨道,属于SpaceX持续扩容星链星座的组成部分,将助力提升星座的全球覆盖能力与通信服务容量,支撑星链面向个人、商业及特殊场景的互联网服务。
美国
(US)
| 数据来源 | 国际轨道数据 |
| 星历时间: | 2026-04-28T07:54:08+0800 1天前 查看轨道信息 |
| 半长轴: | 6853.346km |
| 偏心率: | 0.0000849 |
| 轨道倾角: | 53.160° |
| 近地点辐角 | 91.954° |
| 升交点赤经 | 13.514° |
| 平近点角 | 268.156° |
| 近地点: | 474.627km |
| 远地点: | 475.791km |
| 周期: | 94.105分钟 |
| 每日圈数: | 15.302023 |